Temp
82 80 82 85 84 84 83 83 81 79 80 86 84 88 88 88 86 84 84 77 73 72 70 69 69 70 70 70 70 70 69 69 70 70 70 70 70 70
85 81 82 86 85 85 84 83 81 80 78 85 85 85 85 87 86 84 84 75 72 71 70 68 68 69 69 69 69 68 68 68 68 68 69 69 69 68
84 83 83 83 86 86 85 84 83 80 79 84 86 85 80 82 84 86 85 83 84 69 69 68 68 68 68 68 68 68 67 67 67 68 68 68 68 68
85 84 84 87 83 84 86 82 84 84 80 77 83 83 82 82 82 80 84 87 85 75 69 68 67 66 66 66 65 65 64 64 64 65 67 68 68 68
86 85 85 85 83 86 85 85 87 86 84 79 81 84 80 82 83 83 83 82 83 76 69 68 66 66 65 64 64 62 60 60 61 61 63 65 66 67
87 86 86 85 84 84 85 84 84 84 84 79 78 80 80 82 82 80 81 86 83 84 77 73 70 67 66 65 64 64 61 59 58 57 58 59 61 63
86 86 87 84 77 79 87 86 84 83 85 83 80 83 85 86 84 87 83 82 82 81 80 80 77 75 66 66 68 66 63 61 59 58 57 56 56 59
85 86 87 80 78 70 70 70 77 82 81 83 84 83 81 83 86 84 83 79 74 79 76 73 71 73 70 72 67 64 62 61 60 59 58 56 56 56
86 86 88 92 82 86 75 68 68 67 69 80 80 81 81 83 82 79 79 76 73 71 67 70 75 66 68 76 63 62 60 60 60 59 58 57 56 55
86 87 86 86 86 85 86 86 86 86 84 81 79 81 82 83 81 80 76 72 66 65 68 67 71 61 63 71 62 61 59 59 58 58 58 57 55 54
86 86 86 85 76 67 82 81 82 85 81 68 68 68 67 65 68 78 73 67 65 64 64 71 66 60 63 71 73 60 58 56 56 56 57 56 53 53
85 85 71 77 69 63 79 81 79 82 85 85 84 74 68 73 63 72 76 69 66 61 67 66 57 64 60 73 74 75 74 54 53 53 53 54 53 72
86 87 89 66 61 60 59 80 79 81 79 82 83 83 82 81 81 77 76 74 66 66 65 62 56 59 63 65 71 74 75 74 74 67 49 51 52 56
85 89 88 65 59 57 61 63 60 63 78 77 76 75 78 79 78 76 75 75 74 69 63 60 60 68 65 59 64 73 73 74 73 73 73 57 52 53
84 79 66 60 56 61 56 57 57 76 73 70 70 72 77 79 76 72 70 69 65 65 63 62 64 63 66 62 66 70 71 72 73 72 72 71 68 67
67 75 73 66 60 67 69 73 74 78 73 73 73 76 76 69 69 68 65 63 62 61 62 62 63 63 61 62 67 70 72 70 70 71 70 70 69 67
70 76 76 77 75 76 76 74 73 72 71 72 71 72 70 68 65 63 64 63 61 62 58 61 62 62 62 65 62 71 72 70 71 69 65 68 69 65
66 73 75 76 75 78 77 76 74 71 72 71 77 73 69 66 63 62 63 63 61 61 59 65 59 57 63 59 60 70 70 70 69 66 66 64 66 64
66 71 72 75 76 77 78 78 79 83 80 80 78 71 68 65 63 62 61 61 60 59 62 65 61 61 63 58 65 50 69 68 67 66 67 65 62 62
66 69 70 73 75 75 76 79 82 82 82 79 73 69 67 66 63 61 60 59 59 59 58 60 62 65 61 69 69 64 48 66 67 67 66 66 59 49
65 67 67 68 70 71 74 74 79 80 80 75 71 69 68 66 66 63 59 55 56 58 57 59 59 60 64 70 66 64 62 50 56 64 63 63 62 61
57 59 59 59 59 61 64 66 69 70 71 69 68 67 67 66 65 63 61 58 57 61 62 60 59 61 63 69 70 64 63 61 52 50 50 50 59 59
53 54 55 54 54 55 57 61 64 65 65 66 67 66 65 64 64 63 61 61 64 62 58 60 59 61 64 70 67 68 62 60 63 61 59 49 49 48
MSLP
1020.96 1021.09 1020.96 1020.96 1021.01 1020.93 1020.98 1020.84 1020.51 1019.75 1019.22 1018.82 1018.67 1018.25 1018.25 1018.02 1017.70 1017.69 1017.53 1017.45 1017.64 1017.63 1017.74 1018.11 1018.22 1018.34 1018.67 1018.93 1019.14 1019.21 1019.08 1018.91 1018.98 1019.03 1019.06 1019.09 1019.03 1019.02
1020.50 1020.63 1020.73 1020.60 1020.52 1020.60 1020.61 1020.64 1020.58 1020.22 1019.44 1018.88 1018.47 1018.22 1018.00 1017.65 1017.18 1017.19 1016.95 1017.00 1016.88 1016.95 1017.07 1017.27 1017.47 1017.82 1018.14 1018.53 1018.71 1018.75 1018.67 1018.59 1018.61 1018.56 1018.69 1018.73 1018.84 1018.94
1020.05 1020.17 1020.21 1020.21 1019.94 1019.97 1020.09 1020.09 1019.99 1020.02 1019.27 1018.26 1018.14 1018.01 1017.85 1017.35 1016.76 1016.47 1016.31 1016.17 1015.85 1016.32 1016.52 1016.59 1016.91 1017.27 1017.62 1017.94 1018.09 1018.23 1018.26 1018.13 1018.07 1017.97 1018.19 1018.41 1018.50 1018.63
1019.32 1019.49 1019.40 1019.35 1019.52 1019.48 1019.42 1019.45 1019.23 1019.18 1019.14 1018.00 1017.57 1017.39 1017.25 1016.99 1016.58 1016.31 1015.66 1015.29 1015.16 1015.26 1015.77 1015.92 1016.31 1016.74 1017.08 1017.49 1017.58 1017.71 1017.84 1017.76 1017.69 1017.56 1017.73 1017.89 1018.05 1018.20
1018.62 1018.71 1018.63 1018.70 1018.77 1018.70 1018.78 1018.58 1018.38 1018.29 1018.26 1018.00 1016.90 1016.81 1016.78 1016.62 1015.88 1015.56 1015.19 1014.84 1014.76 1014.78 1015.19 1015.44 1015.84 1016.20 1016.45 1016.95 1017.10 1017.30 1017.33 1017.30 1017.29 1017.09 1017.27 1017.46 1017.54 1017.59
1018.00 1018.06 1018.11 1018.14 1018.18 1018.26 1018.18 1018.10 1017.96 1017.71 1017.36 1017.26 1016.89 1016.25 1016.00 1015.73 1015.46 1014.96 1014.36 1013.92 1013.93 1013.99 1014.34 1014.69 1015.28 1015.79 1016.18 1016.58 1016.70 1016.76 1016.73 1016.78 1016.69 1016.61 1016.72 1016.87 1016.99 1017.17
1017.34 1017.41 1017.43 1017.49 1017.54 1017.61 1017.46 1017.15 1017.20 1017.01 1016.58 1016.32 1016.07 1015.26 1014.57 1014.06 1013.92 1013.52 1013.51 1013.64 1013.52 1013.76 1013.79 1014.03 1014.60 1015.10 1015.83 1016.04 1016.09 1016.09 1016.20 1016.24 1016.13 1016.06 1016.09 1016.32 1016.56 1016.69
1016.50 1016.47 1016.59 1016.78 1016.89 1016.93 1016.79 1016.64 1016.56 1016.32 1015.88 1015.65 1014.97 1014.33 1013.82 1013.65 1013.32 1013.17 1013.14 1013.23 1013.13 1013.73 1013.98 1014.01 1014.35 1014.75 1015.21 1015.33 1015.74 1016.04 1015.95 1015.81 1015.72 1015.68 1015.78 1015.96 1016.15 1016.36
1015.62 1015.57 1015.52 1015.37 1015.53 1015.68 1015.57 1015.68 1015.58 1015.43 1015.19 1014.89 1014.51 1013.80 1013.31 1013.08 1013.13 1013.02 1012.99 1013.21 1013.45 1014.06 1014.41 1013.83 1014.17 1014.76 1014.81 1014.74 1015.66 1015.82 1015.74 1015.71 1015.75 1015.78 1015.74 1015.79 1015.94 1016.21
1014.81 1014.67 1014.63 1014.47 1014.51 1014.55 1014.58 1014.47 1014.20 1013.82 1013.66 1013.93 1013.82 1013.10 1012.82 1012.67 1012.73 1012.67 1012.84 1013.28 1013.94 1014.17 1014.27 1013.89 1014.23 1014.84 1015.04 1014.85 1015.43 1015.62 1015.69 1015.70 1015.73 1015.67 1015.63 1015.72 1015.91 1016.02
1013.81 1013.69 1013.73 1013.71 1013.55 1013.67 1013.94 1013.64 1013.22 1012.68 1012.00 1012.32 1012.33 1012.28 1012.24 1012.23 1012.49 1012.56 1012.47 1012.92 1013.05 1013.44 1013.97 1013.61 1014.37 1014.71 1014.80 1014.68 1014.78 1015.42 1015.55 1015.70 1015.80 1015.68 1015.57 1015.61 1015.78 1015.91
1012.74 1012.67 1012.78 1012.93 1012.82 1012.93 1013.34 1013.04 1012.58 1011.88 1011.63 1011.62 1011.81 1012.24 1011.91 1011.62 1012.21 1012.36 1011.95 1012.21 1012.64 1012.97 1012.99 1013.59 1014.37 1014.51 1014.47 1013.88 1014.27 1014.31 1014.61 1015.42 1015.60 1015.71 1015.70 1015.72 1015.72 1014.86
1011.49 1011.29 1011.35 1011.62 1012.00 1012.13 1012.31 1012.34 1011.69 1011.56 1011.42 1011.36 1011.09 1010.99 1010.83 1010.89 1011.07 1011.27 1011.34 1011.43 1011.80 1012.20 1012.88 1013.42 1013.93 1014.15 1014.16 1013.96 1014.05 1014.00 1014.08 1014.19 1014.49 1015.06 1015.76 1015.85 1015.83 1015.68
1010.62 1010.22 1010.20 1010.65 1011.01 1011.20 1011.54 1011.46 1011.35 1011.41 1011.31 1010.95 1010.63 1010.42 1010.13 1009.96 1010.32 1010.47 1010.53 1010.74 1011.18 1011.73 1012.51 1012.91 1013.32 1013.18 1013.62 1013.93 1013.75 1013.68 1013.85 1013.96 1014.36 1014.39 1014.59 1015.59 1015.73 1015.65
1009.99 1009.60 1009.82 1010.03 1010.47 1010.74 1010.64 1010.44 1010.66 1010.75 1010.64 1010.40 1009.80 1009.60 1009.44 1009.40 1010.01 1010.63 1010.89 1011.24 1011.73 1011.98 1012.50 1012.79 1012.94 1013.21 1013.40 1013.55 1013.38 1013.38 1013.46 1013.66 1014.07 1014.26 1014.37 1014.61 1014.83 1014.98
1009.78 1009.60 1009.47 1009.54 1009.79 1009.69 1009.79 1009.62 1009.75 1009.63 1009.48 1009.33 1009.04 1008.93 1009.09 1009.77 1010.07 1010.40 1010.86 1011.19 1011.66 1011.84 1012.51 1012.64 1012.91 1013.07 1013.45 1013.44 1013.42 1013.14 1013.24 1013.24 1013.92 1014.10 1014.35 1014.50 1014.75 1015.00
1009.23 1009.19 1008.90 1008.79 1008.66 1008.57 1008.56 1008.50 1008.59 1008.75 1009.02 1008.82 1008.64 1008.77 1009.13 1009.50 1009.97 1010.47 1010.45 1011.09 1011.30 1011.45 1012.25 1012.75 1012.96 1013.18 1013.33 1013.25 1013.35 1013.02 1013.00 1013.32 1013.77 1014.04 1014.28 1014.04 1014.38 1015.09
1009.34 1008.45 1008.33 1007.96 1007.81 1007.74 1007.73 1007.63 1007.67 1007.63 1007.60 1007.80 1007.95 1008.42 1008.83 1009.20 1009.63 1010.12 1010.29 1010.64 1011.19 1011.48 1011.63 1011.67 1012.72 1013.27 1013.38 1013.80 1013.90 1013.04 1013.27 1013.38 1013.80 1014.22 1014.31 1014.14 1014.06 1014.82
1008.73 1008.05 1007.60 1007.42 1007.12 1006.93 1006.93 1006.86 1006.63 1006.29 1006.45 1006.88 1007.53 1008.07 1008.34 1008.73 1009.20 1009.66 1009.96 1010.22 1010.87 1010.98 1011.16 1011.56 1011.99 1012.24 1012.45 1012.78 1013.70 1014.37 1013.35 1013.70 1013.84 1013.97 1014.19 1014.32 1014.52 1014.95
1008.43 1007.89 1007.46 1007.03 1006.68 1006.52 1006.35 1006.22 1006.02 1005.94 1006.02 1006.43 1006.83 1007.28 1007.78 1008.30 1008.72 1009.05 1009.35 1009.09 1010.27 1010.74 1011.11 1011.50 1011.40 1011.45 1011.64 1011.10 1011.90 1013.74 1014.54 1014.06 1013.75 1013.70 1013.95 1014.46 1015.16 1015.99
1008.94 1008.28 1007.84 1007.57 1007.26 1006.77 1006.41 1006.29 1006.00 1005.89 1005.95 1006.04 1006.34 1006.72 1007.11 1007.80 1008.11 1008.55 1009.05 1009.24 1009.81 1010.17 1010.63 1011.08 1011.29 1011.59 1011.71 1011.83 1012.18 1013.09 1014.28 1014.98 1014.75 1014.37 1014.60 1014.53 1014.69 1015.07
1009.64 1009.12 1008.56 1008.27 1007.96 1007.42 1006.82 1006.11 1005.96 1006.09 1006.16 1006.01 1006.09 1006.39 1006.69 1007.03 1007.42 1007.83 1008.43 1008.72 1009.24 1009.51 1009.84 1010.74 1011.30 1011.67 1011.62 1011.17 1010.91 1012.09 1013.29 1014.36 1015.32 1015.40 1015.36 1015.49 1015.00 1014.91
1010.33 1010.07 1009.45 1009.10 1008.89 1008.43 1007.95 1006.61 1006.52 1006.45 1006.37 1006.04 1006.12 1006.22 1006.48 1006.60 1006.94 1007.46 1007.96 1008.65 1008.69 1009.23 1009.72 1010.44 1011.09 1011.30 1011.33 1011.04 1010.80 1011.23 1012.57 1013.46 1013.70 1014.26 1014.80 1015.82 1015.93 1016.11
Wind_Speed
3 4 3 3 4 3 3 2 3 5 7 3 4 3 5 6 8 9 9 9 10 11 12 12 15 14 13 12 10 9 9 8 10 9 7 4 2 1
4 4 4 3 3 3 3 3 4 4 5 4 7 9 10 9 9 9 10 9 12 13 12 15 17 14 14 11 11 11 11 10 10 11 10 7 5 3
6 6 7 5 4 4 4 5 5 5 8 9 8 10 11 11 10 10 9 9 8 13 12 15 16 15 13 12 11 11 11 12 11 13 12 10 10 8
8 7 8 5 6 6 6 7 7 7 8 14 11 10 11 12 11 12 9 8 8 8 14 14 14 14 13 10 10 10 11 11 11 13 12 12 12 12
10 9 9 8 8 8 8 8 8 7 8 10 13 8 7 8 11 11 9 8 7 7 11 13 13 13 12 9 10 9 10 10 8 9 10 12 13 14
10 11 11 11 11 10 9 10 9 9 10 8 11 11 9 10 9 10 9 6 6 4 4 5 8 11 9 9 10 10 10 8 8 8 8 11 12 13
12 12 12 13 12 12 10 10 10 10 10 9 10 11 11 10 10 10 10 9 7 5 4 4 5 7 5 9 10 8 8 7 8 8 9 10 11 13
13 13 13 12 14 15 16 18 15 12 13 11 12 13 13 12 10 10 9 8 5 2 3 4 3 5 5 4 1 5 5 5 4 4 5 6 7 8
15 14 14 13 12 15 14 17 17 18 19 14 14 14 14 12 11 11 9 7 6 2 3 4 4 3 2 4 4 3 2 3 3 3 2 1 3 4
17 17 16 17 16 16 16 16 17 16 14 11 15 16 14 12 9 7 8 3 0 2 4 4 3 1 3 4 7 5 3 5 4 4 3 4 4 4
16 16 17 17 17 13 15 17 16 16 12 15 17 16 15 14 9 7 7 5 4 4 6 3 3 2 2 5 7 6 5 5 4 5 4 3 4 5
14 15 15 19 15 11 14 14 15 16 14 13 10 11 14 12 9 11 8 7 3 2 6 6 3 3 3 5 6 6 7 8 6 5 5 5 2 5
13 12 12 15 19 19 16 14 15 12 12 11 11 9 8 9 8 8 9 8 6 4 5 4 3 3 2 2 4 6 4 3 4 6 8 6 4 5
14 13 12 11 15 16 11 15 16 13 10 9 8 9 10 9 7 6 7 6 4 2 10 5 4 6 5 2 3 5 4 3 3 2 1 6 6 5
14 13 12 9 6 8 15 16 9 9 8 7 8 9 9 6 2 3 3 4 4 4 7 5 3 5 4 3 3 4 2 4 2 2 1 1 3 5
15 14 13 9 9 11 9 9 8 10 8 9 8 8 2 3 5 4 4 6 4 4 4 6 5 6 4 2 3 5 3 3 3 0 1 1 2 4
4 7 8 8 9 8 8 8 6 4 6 7 7 5 4 4 3 4 3 5 5 5 6 6 5 4 2 2 4 5 3 3 1 1 3 2 1 4
3 9 9 9 8 9 9 8 6 9 8 6 6 6 5 5 5 4 3 4 4 4 5 8 7 5 4 3 5 4 3 3 2 3 1 3 3 4
5 7 7 8 8 8 9 9 9 9 7 6 6 6 4 5 6 6 5 5 5 5 5 7 8 7 6 6 5 6 3 3 3 3 1 2 3 4
3 5 6 6 7 7 6 7 8 7 7 6 6 5 6 6 6 7 7 7 4 2 4 5 7 8 6 5 5 4 7 3 3 1 0 1 5 5
5 5 4 5 6 6 7 5 9 8 8 6 5 6 6 7 6 5 5 7 7 5 6 7 3 3 2 4 6 5 5 6 7 4 2 2 2 2
6 6 5 5 5 6 6 4 3 5 4 3 3 5 5 6 6 7 7 7 7 6 4 5 6 5 5 7 5 8 5 6 6 9 10 7 5 2
6 7 6 6 6 5 5 5 4 2 2 1 2 3 5 5 5 5 6 5 8 6 7 7 6 6 7 8 4 5 7 7 5 6 7 5 6 5
Wind_Direction
222 212 236 226 214 205 215 243 321 321 320 276 295 287 300 301 293 293 277 268 243 235 203 196 208 212 221 224 234 251 268 276 268 259 248 235 237 314
234 220 236 237 232 221 229 225 227 264 282 294 287 299 304 298 289 283 281 265 236 230 202 199 211 211 221 227 236 250 258 266 269 248 238 224 217 211
230 237 249 235 261 250 232 240 245 236 269 288 281 289 302 300 302 300 285 277 264 214 214 207 210 212 218 224 233 250 258 265 268 248 227 218 210 210
242 241 251 247 249 251 253 257 262 260 267 287 291 292 277 296 294 292 290 282 270 202 216 211 205 210 214 221 237 247 266 272 268 246 224 214 213 206
245 248 256 256 256 267 263 270 271 266 260 268 290 293 279 287 292 281 276 288 268 240 208 221 205 208 210 217 239 246 256 272 262 239 232 217 212 210
249 249 252 252 253 258 261 266 268 271 272 268 275 290 286 286 284 285 295 281 281 260 223 270 188 211 209 237 244 254 259 259 253 241 232 228 219 213
254 255 253 253 250 246 262 266 269 265 273 277 272 279 284 288 295 301 292 292 290 255 252 224 214 210 207 222 257 249 257 254 250 244 239 233 229 217
258 256 255 245 246 237 238 245 254 264 268 271 279 280 284 282 292 292 294 294 299 156 217 225 184 207 236 203 147 296 261 242 240 221 222 226 223 215
255 258 262 261 240 256 241 231 246 244 243 263 269 270 280 285 292 288 280 258 252 174 203 247 199 204 210 199 155 175 157 176 163 129 112 235 229 202
255 257 257 261 258 259 265 268 266 267 251 231 243 259 266 272 269 280 290 295 43 206 207 248 129 164 231 191 147 137 128 146 137 140 160 199 213 213
254 253 251 255 255 233 250 263 269 270 260 225 242 257 259 257 255 274 245 226 220 209 195 240 152 193 172 199 176 152 109 101 102 95 99 147 178 204
255 254 238 246 255 231 243 259 264 265 273 278 251 245 252 262 224 231 251 232 202 211 186 188 141 181 188 205 192 181 173 128 112 86 76 86 99 270
251 256 253 220 230 244 227 251 252 267 273 271 272 273 265 258 249 220 230 224 205 221 160 148 159 149 224 150 195 204 218 193 212 163 120 87 66 354
257 258 261 233 223 232 231 239 245 256 266 267 269 266 268 259 243 231 219 221 230 226 164 150 161 187 168 137 200 177 195 207 265 270 262 137 157 175
254 264 271 267 254 245 237 245 232 246 249 244 245 257 264 276 212 197 169 137 113 114 164 181 158 149 165 154 172 204 250 157 240 254 261 328 354 334
250 261 263 277 280 279 292 247 241 257 248 254 263 276 285 161 203 183 180 179 192 164 173 173 164 157 154 187 225 258 211 262 179 250 336 306 348 1
244 257 261 252 254 253 249 241 232 197 223 243 250 256 219 191 195 186 177 184 223 179 170 165 174 155 178 208 221 231 235 221 212 98 268 323 47 20
217 240 251 257 249 253 257 255 224 227 228 233 246 260 231 196 185 190 199 197 221 194 183 169 158 141 184 228 314 251 201 242 162 164 258 310 347 56
221 242 238 245 249 246 247 247 256 256 239 237 253 239 199 200 194 191 196 167 195 178 199 172 175 182 176 216 116 11 244 204 180 198 285 338 347 52
286 274 271 270 264 264 257 258 259 258 249 249 237 197 190 200 193 195 194 156 165 163 157 202 180 192 188 244 142 113 14 245 231 231 232 164 92 105
343 333 329 301 281 267 257 261 273 268 266 239 224 200 197 200 204 175 154 154 156 176 181 205 185 168 80 138 149 151 125 34 14 327 101 304 23 152
350 343 356 353 337 337 336 310 291 273 259 223 193 194 193 196 188 174 181 173 177 187 167 140 153 160 197 218 205 137 157 144 109 74 60 11 344 305
357 345 358 355 346 339 306 340 359 337 296 221 203 192 186 180 176 179 173 179 180 168 148 158 160 175 216 223 191 161 146 180 179 183 140 93 94 78